Weather in Erfoud

Morocco     31°26′01″N   4°14′17″W
temp.,
°C
wind,
m/s
gust,
m/s
humid.,
%
clouds,
%
prec.,
mm/h
press.,
hPa
HPBL,
m
5 march, fri
fri501:00+16se2336100 0.0 101534
04:00+15se4537100 0.0 1015114
07:00+14se5740100 0.0 1014213
10:00+16s4736100 0.0 1014832
13:00+19s7826100 0.0 10131679
16:00+22s8101782 0.0 10102943
19:00+21s471841 0.0 1008157
22:00+18sse59212 0.0 1010150
6 march, sat
sat601:00+15se7102722 0.0 1010224
04:00+14se7133955 0.4 1010364
07:00+13se6124163 0.4 1011322
10:00+14sse793716 0.0 1012763
13:00+19s810298 0.0 10122146
16:00+20ssw811210 0.0 10092952
19:00+19ssw69230 0.0 1009535
22:00+16sse47300 0.1 1012138
7 march, sun
sun701:00+14sse23389 0.1 101227
04:00+12ene234340 0.1 101223
07:00+12nne585056 0.8 1012137
10:00+14ne810430 0.0 1014704
13:00+18nne77340 0.0 10141692
16:00+20n78260 0.0 10112390
19:00+19nne442610 0.0 1012707
22:00+15ne7114040 0.0 1015423
8 march, mon
mon801:00+13ene6104820 0.0 1015305
04:00+12ene465610 0.0 1015147
07:00+10ene22675 0.0 101528
10:00+13nne235219 0.0 1016461
13:00+16wnw223810 0.0 10151370
16:00+18sw133221 0.0 10122198
19:00+18se123260 0.0 10121421
22:00+15ne684381 0.1 1014292
9 march, tue
tue901:00+15ne9104088 0.1 1015481
04:00+13ene8104682 0.0 1015386
07:00+11ne9125674 0.0 1015374
10:00+12ne785770 0.0 1017459
13:00+16ene334278 0.0 10161658
16:00+17ese343695 0.4 10141836
19:00+16ene894693 0.9 1014756
22:00+13ne8105998 0.1 1017657